RADUGA 19 [-]

Last updated on Nov. 12, 2019, 4:19 a.m. UTC

1 17046U 86082A   19314.89092390 -.00000214  00000-0  00000+0 0  9997
2 17046  14.4954 344.0909 0008269 116.0130 252.3483  0.98461997119228
UTC
Height (km)
Latitude
Longitude
Inclination
Orbital Period
UTC large
Height (km)
Speed (km/s)
/
Latitude / Longitude
Inclination (degrees)
Orbital Period (minutes)
Azimuth
Elevation
Range (km)
Doppler Factor
iOS Compass Heading
iOS Angle

Next 30 passes for location: Hong Kong

Rise time Rise Azimuth (degrees) Set time Set Azimuth (degrees) Duration Max altitude (degrees)

No matching passes for this satellites